This is the latest recevied weather packets stored in our database for station/object KB4MLW-13. If no packets are shown the sender has not sent any weather packets the latest 10 day(s).
| Time | Temp. | Humidity | Pressure | Rain* | Wind** | Luminosity | Snow |
|---|---|---|---|---|---|---|---|
| 1788219028 | 31.11° C | 66% | 1000.3 hPa | 0 mm | - | - | - |
| 1788218968 | 31.11° C | 66% | 1000.2 hPa | 0 mm | - | - | - |
| 1788218878 | 31.11° C | 68% | 1000.3 hPa | 0 mm | - | - | - |
| 1788218789 | 31.67° C | 67% | 1000.2 hPa | 0 mm | - | - | - |
| 1788218728 | 31.67° C | 69% | 1000.2 hPa | 0 mm | - | - | - |
| 1788218668 | 31.67° C | 65% | 1000.3 hPa | 0 mm | - | - | - |
| 1788218608 | 31.67° C | 65% | 1000.4 hPa | 0 mm | - | - | - |
| 1788218548 | 31.67° C | 65% | 1000.5 hPa | 0 mm | - | - | - |
| 1788218458 | 31.67° C | 66% | 1000.3 hPa | 0 mm | - | - | - |
| 1788218369 | 31.67° C | 65% | 1000.4 hPa | 0 mm | - | - | - |
| 1788218308 | 31.67° C | 69% | 1000.5 hPa | 0 mm | - | - | - |
| 1788218248 | 31.67° C | 65% | 1000.3 hPa | 0 mm | - | - | - |
| 1788218159 | 31.67° C | 65% | 1000.3 hPa | 0 mm | - | - | - |
| 1788218099 | 31.67° C | 64% | 1000.6 hPa | 0 mm | - | - | - |
| 1788218038 | 31.67° C | 66% | 1000.5 hPa | 0 mm | - | - | - |
| 1788217978 | 31.67° C | 64% | 1000.4 hPa | 0 mm | - | - | - |
| 1788217918 | 31.67° C | 66% | 1000.5 hPa | 0 mm | - | - | - |
| 1788217829 | 31.67° C | 66% | 1000.4 hPa | 0 mm | - | - | - |
| 1788217768 | 31.67° C | 66% | 1000.5 hPa | 0 mm | - | - | - |
| 1788217708 | 31.67° C | 65% | 1000.5 hPa | 0 mm | - | - | - |
| 1788217648 | 31.67° C | 64% | 1000.4 hPa | 0 mm | - | - | - |
| 1788217588 | 32.22° C | 67% | 1000.5 hPa | 0 mm | - | - | - |
| 1788217499 | 32.22° C | 67% | 1000.4 hPa | 0 mm | - | - | - |
| 1788217438 | 32.22° C | 65% | 1000.5 hPa | 0 mm | - | - | - |
| 1788217349 | 32.22° C | 64% | 1000.3 hPa | 0 mm | - | - | - |
* Rain latest hour (hover to see other rain measurements)
** Current wind speed in m/s (hover to see current wind gust speed)